Find N-STAR a

NORAD ID: 23651 Int'l Des: 1995-044 Owner: NTT Country: J operational
HEOCIRCULAR

リアルタイム位置

3D地球を読み込み中...

N-STAR aについて

説明を読み込み中...

次回通過

Passes for default location (London). Set your location on the main map for personalized predictions.

高度履歴

Loading altitude history...

軌道要素

1 23651U 95044A 26106.78635980 -.00000069 00000-0 00000-0 0 9996
2 23651 13.1369 21.7807 0023773 6.2016 195.4353 0.99126204111303
Epoch: Apr 16, 2026 • Age: 23 hours

現在のステータス

高度 36212.0 km
速度 3.06 km/s
衛星直下点 -0.75°S, 91.38°E
打ち上げ日 Aug 29, 1995
運用期間 30.6 years
タイプ other

技術仕様

分類 Payload
質量 3410.00 kg
乾燥質量 1617.00 kg
総質量 3410.00 kg
長さ 6.30 m
直径 2.20 m
スパン 27.30 m
形状 Box + Ant + 2 Pan
製造者 LOR
バスタイプ FS-1300
フェーズステータス In Orbit
所有者/国 NTT/J

Most Searched